[[{"header":{"parameterUnit":"m.s-1","parameterCategory":1,"la1":30.2991,"la2":30.254,"lo1":-89.0895,"lo2":-89.0444,"dy":0.0017,"dx":0.0017,"nx":28,"ny":28,"refTime":"2023-11-01T03:00:00:Z","depth":0,"parameterNumber":2,"parameterNumberName":"U-component_of_WINDS"},"data":[0,0,0,0,0,0,0,0,0,0,0,0,0,0,0,0,0,0,0,0,0,0,0,0,0,0,0,0,0,0,0,0,0,0,0,0,0,0,0,0,0,0,0,0,0,0,0,0,0,0,0,0,0,0,0,0,0,0,-1.0277,-1.0277,0,-1.0301,-1.0302,-1.0302,-1.0283,-1.0283,-1.0282,-1.0281,-1.0306,-1.0308,-1.0309,0,0,0,0,0,0,0,0,0,0,0,0,0,-1.0213,-1.0214,-1.0276,-1.0277,-1.0277,-1.0301,-1.0302,-1.0302,-1.0283,-1.0282,-1.0282,-1.0281,-1.0306,-1.0308,-1.0309,0,0,0,0,0,0,0,0,0,0,0,0,0,-1.0239,-1.0214,-1.0276,-1.0271,-1.0271,-1.0301,-1.0302,-1.0302,-1.0284,-1.0282,-1.0281,-1.028,-1.0305,-1.0307,-1.0309,-1.0347,0,0,-1.0316,-1.0317,0,0,0,0,0,0,0,0,-1.0238,-1.0241,-1.0271,-1.0271,-1.0271,-1.0288,-1.0288,-1.0317,-1.0284,-1.0279,-1.0281,-1.028,-1.0301,-1.0304,-1.0311,-1.0348,-1.0349,-1.0316,-1.0318,-1.0318,-1.0319,0,0,0,0,0,0,0,-1.0236,-1.024,-1.0286,-1.0272,-1.0272,-1.0267,-1.0269,-1.0294,-1.0296,-1.0279,-1.0278,-1.0281,-1.0301,-1.0309,-1.0311,-1.035,-1.0316,-1.0318,-1.0319,-1.032,-1.0418,-1.0419,0,0,0,0,0,0,-1.0235,-1.0239,-1.0285,-1.0287,-1.0251,-1.0269,-1.0272,-1.0284,-1.0296,-1.0297,-1.0282,-1.028,-1.0306,-1.0309,-1.0312,-1.0357,-1.0318,-1.032,-1.0322,-1.0417,-1.0418,-1.042,0,0,0,0,0,0,-1.0233,-1.0239,-1.0284,-1.0263,-1.0268,-1.0271,-1.0285,-1.0285,-1.0293,-1.0298,-1.0299,-1.029,-1.0305,-1.0309,-1.0338,-1.0357,-1.0321,-1.0323,-1.0415,-1.0417,-1.0419,-1.0446,0,0,0,0,0,0,-1.0232,-1.0239,-1.0253,-1.0263,-1.0269,-1.0311,-1.0286,-1.0286,-1.0297,-1.0294,-1.0306,-1.0306,-1.0304,-1.0335,-1.034,-1.036,-1.0325,-1.0413,-1.0416,-1.0418,-1.0444,-1.0449,-1.0453,0,0,0,0,0,-1.0229,-1.026,-1.0254,-1.026,-1.0288,-1.0312,-1.0315,-1.0312,-1.0298,-1.0313,-1.0316,-1.0306,-1.0354,-1.0338,-1.0344,-1.0364,-1.0412,-1.0415,-1.0418,-1.0441,-1.0448,-1.0453,0,0,0,0,0,0,-1.0252,-1.0261,-1.0255,-1.0289,-1.03,-1.0309,-1.0327,-1.0319,-1.0334,-1.0331,-1.0327,-1.0329,-1.036,-1.0365,-1.0347,-1.0401,-1.0381,-1.0385,-1.0397,-1.0403,-1.0407,-1.0406,-1.0327,0,0,0,0,0,-1.0261,-1.028,-1.0287,-1.0317,-1.0322,-1.0324,-1.0334,-1.0331,-1.0342,-1.0346,-1.0351,-1.0362,-1.038,-1.0391,-1.0408,-1.0444,-1.0446,-1.046,-1.0465,-1.0469,-1.0473,-1.0492,-1.0499,-1.0429,-1.0429,-1.0429,0,0,-1.028,-1.0287,-1.03,-1.0322,-1.0329,-1.0349,-1.0328,-1.0349,-1.0364,-1.0349,-1.0377,-1.0381,-1.0393,-1.0426,-1.044,-1.0431,-1.0492,-1.0473,-1.0476,-1.0478,-1.0496,-1.0502,-1.0508,-1.0431,-1.0431,-1.0431,0,0,-1.0325,-1.0332,-1.0358,-1.0366,-1.0378,-1.0378,-1.0385,-1.0394,-1.0396,-1.0424,-1.0414,-1.043,-1.0461,-1.0469,-1.0478,-1.0524,-1.0516,-1.053,-1.0555,-1.0574,-1.058,-1.0584,-1.0601,-1.0607,-1.0534,-1.0534,-1.0534,0,-1.0347,-1.0376,-1.0372,-1.0395,-1.0404,-1.0392,-1.0417,-1.0425,-1.0442,-1.0449,-1.0438,-1.0475,-1.0482,-1.0516,-1.0528,-1.0535,-1.0541,-1.0529,-1.0579,-1.0584,-1.0588,-1.0604,-1.0611,-1.0535,-1.0535,-1.0535,-1.0535,0,-1.0403,-1.0423,-1.0443,-1.0459,-1.0471,-1.0495,-1.0494,-1.0506,-1.0501,-1.0503,-1.0531,-1.0539,-1.0556,-1.0564,-1.056,-1.0598,-1.0591,-1.058,-1.056,-1.0597,-1.0612,-1.0618,-1.0538,-1.0537,-1.0537,-1.0536,0,0,-1.0464,-1.0477,-1.0484,-1.0491,-1.0503,-1.0519,-1.0541,-1.0558,-1.0569,-1.0581,-1.06,-1.0625,-1.0614,-1.0624,-1.062,-1.0637,-1.0673,-1.0623,-1.0623,-1.0632,-1.0715,-1.0724,-1.0731,-1.0667,-1.0668,-1.0669,-1.0714,0,-1.051,-1.055,-1.0546,-1.0585,-1.0603,-1.0591,-1.0611,-1.062,-1.0622,-1.0638,-1.0639,-1.0657,-1.0642,-1.0647,-1.0663,-1.0665,-1.069,-1.0662,-1.0685,-1.0686,-1.0683,-1.0739,-1.0749,-1.0791,-1.072,-1.0721,-1.0722,0,-1.0568,-1.0582,-1.0622,-1.063,-1.0638,-1.0656,-1.0671,-1.0686,-1.0696,-1.0696,-1.0706,-1.07,-1.0723,-1.0702,-1.0733,-1.0714,-1.0723,-1.0725,-1.0727,-1.073,-1.0706,-1.0744,-1.0805,-1.0811,-1.0731,-1.073,-1.0729,0,-1.0609,-1.0637,-1.0665,-1.0671,-1.0682,-1.0695,-1.0699,-1.0708,-1.0718,-1.0731,-1.0738,-1.0753,-1.0762,-1.0773,-1.0771,-1.0756,-1.0803,-1.0782,-1.0803,-1.0803,-1.0815,-1.0814,-1.0879,-1.0819,-1.0819,-1.0819,-1.0819,0,-1.0661,-1.0686,-1.0683,-1.07,-1.0728,-1.0723,-1.075,-1.0753,-1.0761,-1.0778,-1.0768,-1.0784,-1.078,-1.0796,-1.0794,-1.082,-1.0824,-1.0824,-1.0824,-1.0826,-1.0826,-1.0832,-1.0829,-1.0821,-1.082,-1.082,-1.082,0,-1.0711,-1.0711,-1.074,-1.0747,-1.0749,-1.0769,-1.0775,-1.0791,-1.0792,-1.0813,-1.0818,-1.0819,-1.0837,-1.0836,-1.0856,-1.0855,-1.0887,-1.0882,-1.0884,-1.0883,-1.0905,-1.0903,-1.0976,-1.0986,-1.092,-1.0921,-1.0921,0,-1.0745,-1.0764,-1.0773,-1.0783,-1.0789,-1.0807,-1.0817,-1.0812,-1.0824,-1.0836,-1.085,-1.0867,-1.0881,-1.091,-1.0912,-1.0928,-1.0924,-1.0948,-1.0926,-1.0927,-1.0925,-1.0924,-1.0926,-1.0953,-1.0954,-1.0954,-1.0955,0,-1.0804,-1.0802,-1.0818,-1.0833,-1.0845,-1.0857,-1.0867,-1.0877,-1.0873,-1.0886,-1.0904,-1.0915,-1.0935,-1.0952,-1.0967,-1.0971,-1.0963,-1.0962,-1.0968,-1.097,-1.097,-1.0971,-1.0896,-1.096,-1.096,-1.0959,-1.0959,-1.0959,-1.0847,-1.0863,-1.0872,-1.0889,-1.0897,-1.0906,-1.0922,-1.0924,-1.0939,-1.0956,-1.0952,-1.0972,-1.0981,-1.0999,-1.1005,-1.1021,-1.1012,-1.1021,-1.1023,-1.1025,-1.1028,-1.0967,-1.1023,-1.1023,-1.1023,-1.1023,-1.1023,0,-1.0906,-1.0911,-1.0927,-1.0942,-1.0955,-1.0945,-1.0956,-1.0968,-1.0986,-1.0995,-1.1008,-1.1029,-1.1045,-1.1048,-1.1064,-1.1076,-1.1072,-1.108,-1.1079,-1.1081,-1.1035,-1.1028,-1.1083,-1.1083,-1.1083,-1.1083,-1.1083,-1.1083,-1.0938,-1.0965,-1.0965,-1.0995,-1.0999,-1.1019,-1.1026,-1.1035,-1.1042,-1.1066,-1.1079,-1.1081,-1.1087,-1.1103,-1.1117,-1.1118,-1.1124,-1.1134,-1.1133,-1.109,-1.1084,-1.1078,-1.1072,-1.1135,-1.1135,-1.1177,-1.1177,-1.1178]},{"header":{"parameterUnit":"m.s-1","parameterCategory":1,"la1":30.2991,"la2":30.254,"lo1":-89.0895,"lo2":-89.0444,"dy":0.0017,"dx":0.0017,"nx":28,"ny":28,"refTime":"2023-11-01T03:00:00:Z","depth":0,"parameterNumber":3,"parameterNumberName":"V-component_of_WINDS"},"data":[0,0,0,0,0,0,0,0,0,0,0,0,0,0,0,0,0,0,0,0,0,0,0,0,0,0,0,0,0,0,0,0,0,0,0,0,0,0,0,0,0,0,0,0,0,0,0,0,0,0,0,0,0,0,0,0,0,0,-6.9221,-6.9222,0,-6.9311,-6.9312,-6.9313,-6.9274,-6.9272,-6.927,-6.9268,-6.9354,-6.9358,-6.9362,0,0,0,0,0,0,0,0,0,0,0,0,0,-6.9011,-6.9015,-6.9221,-6.9222,-6.9224,-6.9311,-6.9312,-6.9313,-6.9275,-6.9272,-6.9269,-6.9267,-6.9352,-6.9357,-6.9363,0,0,0,0,0,0,0,0,0,0,0,0,0,-6.9102,-6.9016,-6.9221,-6.9215,-6.9215,-6.9311,-6.9312,-6.9314,-6.9275,-6.9272,-6.9269,-6.9266,-6.9351,-6.9357,-6.9363,-6.9468,0,0,-6.9383,-6.9386,0,0,0,0,0,0,0,0,-6.9097,-6.9109,-6.9215,-6.9216,-6.9216,-6.9278,-6.9269,-6.9365,-6.9276,-6.9252,-6.9268,-6.9264,-6.9331,-6.9339,-6.9362,-6.9472,-6.9476,-6.9384,-6.9387,-6.939,-6.9392,0,0,0,0,0,0,0,-6.909,-6.9105,-6.9257,-6.9216,-6.9217,-6.9206,-6.9215,-6.9287,-6.9308,-6.9254,-6.9252,-6.9263,-6.9331,-6.9356,-6.9364,-6.9477,-6.9383,-6.9389,-6.9393,-6.9396,-6.9678,-6.9681,0,0,0,0,0,0,-6.9085,-6.91,-6.9254,-6.9259,-6.9147,-6.9212,-6.9223,-6.9262,-6.9308,-6.9312,-6.9266,-6.9261,-6.9347,-6.9357,-6.9367,-6.9494,-6.939,-6.9396,-6.94,-6.9674,-6.9679,-6.9682,0,0,0,0,0,0,-6.908,-6.9099,-6.925,-6.9179,-6.9198,-6.922,-6.9263,-6.9265,-6.9291,-6.9317,-6.9319,-6.9289,-6.9345,-6.9358,-6.9444,-6.9496,-6.9399,-6.9405,-6.967,-6.9675,-6.968,-6.9747,0,0,0,0,0,0,-6.9075,-6.9098,-6.9139,-6.9181,-6.9202,-6.9327,-6.9267,-6.9269,-6.9303,-6.9297,-6.9339,-6.9342,-6.9343,-6.9434,-6.945,-6.9503,-6.941,-6.9665,-6.9672,-6.9679,-6.974,-6.9754,-6.9766,0,0,0,0,0,-6.9067,-6.9152,-6.9141,-6.916,-6.9254,-6.933,-6.9342,-6.9343,-6.9307,-6.9348,-6.9365,-6.9341,-6.9488,-6.9444,-6.9461,-6.9516,-6.9662,-6.967,-6.9678,-6.9734,-6.9751,-6.9765,0,0,0,0,0,0,-6.9113,-6.9158,-6.9146,-6.9247,-6.9286,-6.9324,-6.9375,-6.9361,-6.9408,-6.9401,-6.9398,-6.9408,-6.9497,-6.9515,-6.9465,-6.9621,-6.9569,-6.9581,-6.9606,-6.9622,-6.9635,-6.9628,-6.9415,0,0,0,0,0,-6.9136,-6.9196,-6.9231,-6.9317,-6.9337,-6.9353,-6.9386,-6.9384,-6.9423,-6.9438,-6.9461,-6.9498,-6.9552,-6.9588,-6.9639,-6.9743,-6.9751,-6.9789,-6.9802,-6.9812,-6.9823,-6.9879,-6.9897,-6.9709,-6.9709,-6.9709,0,0,-6.9182,-6.9214,-6.9251,-6.9327,-6.9356,-6.9418,-6.9367,-6.9433,-6.9478,-6.9447,-6.9531,-6.9549,-6.959,-6.9685,-6.9728,-6.9703,-6.9876,-6.9823,-6.9831,-6.9836,-6.9889,-6.9907,-6.9923,-6.9715,-6.9714,-6.9713,0,0,-6.9297,-6.9328,-6.9403,-6.9435,-6.9481,-6.9491,-6.951,-6.9551,-6.9562,-6.9646,-6.9625,-6.9677,-6.9771,-6.9802,-6.9829,-6.9958,-6.9938,-6.9974,-7.0041,-7.0096,-7.0111,-7.0124,-7.017,-7.0187,-6.9985,-6.9985,-6.9985,0,-6.9348,-6.9441,-6.9443,-6.9513,-6.9546,-6.9524,-6.96,-6.9629,-6.9689,-6.9712,-6.9684,-6.9802,-6.9828,-6.993,-6.9962,-6.9985,-7.0005,-6.997,-7.0109,-7.0122,-7.0134,-7.0178,-7.0195,-6.9989,-6.9989,-6.9988,-6.9988,0,-6.9502,-6.9567,-6.9622,-6.9683,-6.9723,-6.9795,-6.9807,-6.9846,-6.9841,-6.9854,-6.994,-6.997,-7.0028,-7.0052,-7.0046,-7.0154,-7.0137,-7.0109,-7.0057,-7.0156,-7.0197,-7.0214,-6.9995,-6.9994,-6.9992,-6.9991,0,0,-6.9647,-6.9711,-6.9731,-6.9759,-6.981,-6.9859,-6.9929,-6.9988,-7.0023,-7.0065,-7.0123,-7.0204,-7.0179,-7.021,-7.0208,-7.0256,-7.0357,-7.0222,-7.0223,-7.0246,-7.0477,-7.0499,-7.0518,-7.0344,-7.0347,-7.035,-7.0474,0,-6.9767,-6.9894,-6.9898,-7.0013,-7.0073,-7.0054,-7.0115,-7.0152,-7.0166,-7.0217,-7.0232,-7.029,-7.0252,-7.0271,-7.0318,-7.0335,-7.0403,-7.0326,-7.0397,-7.04,-7.0388,-7.054,-7.0562,-7.0678,-7.049,-7.0493,-7.0495,0,-6.9923,-6.9973,-7.0095,-7.0138,-7.0163,-7.0219,-7.0274,-7.0324,-7.0365,-7.0371,-7.0408,-7.0399,-7.0469,-7.0416,-7.0513,-7.046,-7.049,-7.0503,-7.0507,-7.0514,-7.0453,-7.055,-7.0715,-7.0732,-7.052,-7.0518,-7.0516,0,-7.0018,-7.0116,-7.0202,-7.0226,-7.0278,-7.0318,-7.0341,-7.0379,-7.0414,-7.0462,-7.0484,-7.0538,-7.0568,-7.0609,-7.0614,-7.0575,-7.0712,-7.0658,-7.0719,-7.0719,-7.0748,-7.0746,-7.092,-7.0767,-7.0767,-7.0767,-7.0766,0,-7.0151,-7.0226,-7.0245,-7.0298,-7.0382,-7.0385,-7.0467,-7.0487,-7.0521,-7.0576,-7.0562,-7.0613,-7.0617,-7.067,-7.0674,-7.0754,-7.0767,-7.0774,-7.0774,-7.0775,-7.0774,-7.0794,-7.0786,-7.0771,-7.077,-7.0769,-7.0769,0,-7.0271,-7.0287,-7.0379,-7.0422,-7.0434,-7.0494,-7.053,-7.0579,-7.0593,-7.0663,-7.0679,-7.07,-7.0761,-7.0771,-7.0841,-7.0844,-7.094,-7.0932,-7.0928,-7.0926,-7.0986,-7.0981,-7.1178,-7.1205,-7.1035,-7.1037,-7.1038,0,-7.0355,-7.0413,-7.0463,-7.05,-7.0526,-7.0586,-7.0623,-7.0628,-7.0667,-7.0719,-7.0762,-7.0823,-7.0871,-7.097,-7.099,-7.1044,-7.1037,-7.1103,-7.1045,-7.1045,-7.1038,-7.1035,-7.1041,-7.1114,-7.1116,-7.1117,-7.1118,0,-7.0502,-7.0508,-7.0563,-7.0621,-7.0667,-7.0712,-7.0755,-7.0786,-7.0797,-7.0841,-7.0905,-7.0943,-7.1017,-7.1077,-7.1131,-7.1153,-7.1138,-7.1137,-7.1153,-7.1155,-7.1151,-7.1154,-7.0958,-7.1132,-7.113,-7.1129,-7.1129,-7.1128,-7.0607,-7.0658,-7.0702,-7.0764,-7.0797,-7.0838,-7.0888,-7.0908,-7.0963,-7.1025,-7.1025,-7.1095,-7.1134,-7.1206,-7.1232,-7.1286,-7.1264,-7.1288,-7.1294,-7.13,-7.1307,-7.1142,-7.1295,-7.1295,-7.1294,-7.1294,-7.1294,0,-7.0753,-7.0781,-7.0839,-7.0901,-7.095,-7.0934,-7.098,-7.1022,-7.1085,-7.1124,-7.1173,-7.1247,-7.1305,-7.133,-7.1387,-7.1425,-7.142,-7.144,-7.1437,-7.1443,-7.1322,-7.1302,-7.1444,-7.1444,-7.1444,-7.1444,-7.1444,-7.1444,-7.0836,-7.0922,-7.0933,-7.1035,-7.1061,-7.1132,-7.1161,-7.1198,-7.1229,-7.1313,-7.1363,-7.138,-7.1413,-7.1473,-7.1525,-7.1531,-7.1553,-7.1576,-7.1579,-7.1466,-7.1451,-7.1436,-7.1418,-7.1581,-7.1581,-7.1695,-7.1696,-7.1697]}]]